Location: Esp�s Alto
(42.4476°N, 0.5876°E)
Time: 21:10:40
(UTC+00:00)

CZ-4B R/B - Pass Details

Date: 22 October 2019
Orbit: 486 x 653 km, 97.8° (Epoch: 20 November)

Event Time Altitude Azimuth Distance (km) Brightness Sun altitude
Rises 04:51:18 0° 9° (N) 2,763 6.5 -16.7°
Reaches altitude 10° 04:53:30 10° 6° (N) 1,835 5.5 -16.3°
Maximum altitude 04:57:24 61° 286° (WNW) 609 2.7 -15.6°
Drops below altitude 10° 05:01:05 10° 206° (SSW) 1,733 5.1 -14.9°
Sets 05:03:07 0° 203° (SSW) 2,595 6.0 -14.5°
